Home > Time Zones > World Clock > Weather > Spain > Palma > Past weeks

Flag for Spain Weather past 2 weeks in Palma, Majorca, Spain

Now
34 °F

Passing clouds.


Feels Like: 34 °F
Forecast: 44 / 64 °F
Wind: No wind

Location: Palma De Mallorca / Son San Juan

Current Time: Feb 28, 2015 at 8:11:04 AM

Latest Report: Feb 28, 2015 at 7:30 AM


Visibility: N/A

Pressure: 30.15 "Hg

Humidity: 100%

Dew point: 34 °F

Location of PalmaLocation

Historic Weather in Palma — Graph

°F

Palma temperature yesterday

Maximum temperature yesterday: 57 °F (at 9:30 AM)
Minimum temperature yesterday: 37 °F (at 11:00 PM)
Average temperature yesterday: 49 °F

Past Weeks' High & Low Weather Summary

 TemperatureHumidityPressure
High64 °F (Feb 15, 4:00 PM)100% (Feb 13, 10:00 PM)30.45 "Hg (Feb 13, 10:00 PM)
Low32 °F (Feb 23, 1:30 AM)38% (Feb 22, 5:30 PM)29.56 "Hg (Feb 21, 5:30 PM)
Average51 °F78%30.04 "Hg
* Reported Feb 13 6:00 AM — Feb 28 6:30 AM, Palma, Weather by CustomWeather, © 2015

Note: Actual official high and low records may vary slightly from our data, if they occured in-between our weather recording intervals... More about our weather records

Advertising

Palma weather history for previous 24 hours

 ConditionsComfort  
Time TempWeatherWind HumidityBarometerVisibility
6:30 AM
Sat, Feb 28
36 °FPassing clouds.No wind100%30.15 "HgN/A
6:00 AM36 °FPassing clouds.No wind100%30.15 "HgN/A
5:30 AM37 °FPassing clouds.No wind100%30.15 "HgN/A
5:00 AM37 °FPassing clouds.1 mph100%30.15 "HgN/A
4:30 AM39 °FPassing clouds.1 mph93%30.15 "HgN/A
4:00 AM39 °FPassing clouds.No wind100%30.15 "HgN/A
3:30 AM39 °FPassing clouds.2 mph93%30.15 "HgN/A
3:00 AM37 °FPassing clouds.No wind93%30.15 "HgN/A
2:30 AM36 °FPassing clouds.2 mph100%30.15 "HgN/A
2:00 AM36 °FPassing clouds.No wind100%30.15 "HgN/A
1:30 AM37 °FPassing clouds.No wind100%30.15 "HgN/A
1:00 AM37 °FPassing clouds.No wind93%30.15 "HgN/A
12:30 AM37 °FPassing clouds.1 mph100%30.15 "HgN/A
12:00 AM37 °FPassing clouds.2 mph100%30.15 "HgN/A
11:30 PM
Fri, Feb 27
39 °FPassing clouds.No wind93%30.15 "HgN/A
11:00 PM37 °FPassing clouds.1 mph100%30.15 "HgN/A
10:30 PM39 °FPassing clouds.No wind93%30.15 "HgN/A
10:00 PM41 °FPassing clouds.No wind93%30.15 "HgN/A
9:30 PM41 °FPassing clouds.No wind93%30.12 "HgN/A
9:00 PM43 °FPassing clouds.2 mph100%30.12 "HgN/A
8:30 PM43 °FPassing clouds.2 mph93%30.12 "HgN/A
8:00 PM43 °FPassing clouds.No wind93%30.09 "HgN/A
7:30 PM46 °FPassing clouds.1 mph93%30.09 "HgN/A
7:00 PM48 °FPassing clouds.1 mph87%30.07 "HgN/A
6:30 PM48 °FPassing clouds.No wind87%30.07 "HgN/A
6:00 PM48 °FPassing clouds.No wind87%30.07 "HgN/A
5:30 PM48 °FPassing clouds.7 mph82%30.04 "HgN/A
5:00 PM48 °FScattered clouds.13 mph82%30.04 "HgN/A
4:30 PM46 °FRain. Partly sunny.16 mph93%30.04 "Hg4 mi
4:00 PM48 °FRain. Partly sunny.12 mph87%30.04 "Hg4 mi
3:30 PM48 °FRain. Partly sunny.15 mph87%30.01 "Hg4 mi
3:00 PM48 °FLight rain. Partly sunny.16 mph87%30.01 "HgN/A
2:30 PM48 °FLight rain. Partly sunny.18 mph87%29.98 "Hg4 mi
2:00 PM50 °FRain. Partly sunny.25 mph88%29.95 "Hg4 mi
1:30 PM52 °FRain. Partly sunny.21 mph82%29.95 "Hg6 mi
1:00 PM55 °FScattered clouds.15 mph63%29.92 "HgN/A
12:30 PM55 °FScattered clouds.18 mph63%29.92 "HgN/A
12:00 PM57 °FScattered clouds.18 mph59%29.92 "HgN/A
11:30 AM57 °FPassing clouds.28 mph55%29.92 "HgN/A
11:00 AM57 °FPassing clouds.24 mph55%29.95 "HgN/A
10:30 AM57 °FPassing clouds.22 mph55%29.92 "HgN/A
10:00 AM57 °FScattered clouds.21 mph55%29.92 "HgN/A
9:30 AM57 °FScattered clouds.15 mph67%29.92 "HgN/A
9:00 AM54 °FLow clouds.7 mph88%29.92 "HgN/A
8:30 AM52 °FLow clouds.5 mph100%29.92 "HgN/A
8:00 AM52 °FLow clouds.No wind94%29.92 "HgN/A
Weather by CustomWeather, © 2015

See weather overviewHow to use our weather pages